This is the latest recevied weather packets stored in our database for station/object N5ZP. If no packets are shown the sender has not sent any weather packets the latest 10 day(s).
| Time | Temp. | Humidity | Pressure | Rain* | Wind** | Luminosity | Snow |
|---|---|---|---|---|---|---|---|
| 1777388223 | 26.67° C | 83% | 1009.1 hPa | 0 mm | - | 187 W/m² | - |
| 1777387918 | 26.11° C | 85% | 1008.8 hPa | 0 mm | - | 288 W/m² | - |
| 1777387614 | 26.11° C | 86% | 1009 hPa | 0 mm | - | 184 W/m² | - |
| 1777387311 | 26.11° C | 86% | 1008.8 hPa | 0 mm | - | 124 W/m² | - |
| 1777387011 | 25.56° C | 86% | 1008.8 hPa | 0 mm | - | 163 W/m² | - |
| 1777386708 | 25.56° C | 86% | 1008.9 hPa | 0 mm | - | 120 W/m² | - |
| 1777386405 | 26.11° C | 85% | 1008.7 hPa | 0 mm | - | 145 W/m² | - |
| 1777386102 | 26.11° C | 85% | 1008.8 hPa | 0 mm | - | 182 W/m² | - |
| 1777385799 | 26.11° C | 85% | 1008.8 hPa | 0 mm | - | 163 W/m² | - |
| 1777385496 | 26.11° C | 86% | 1008.6 hPa | 0 mm | - | 204 W/m² | - |
| 1777385193 | 25.56° C | 86% | 1008.8 hPa | 0 mm | - | 224 W/m² | - |
| 1777384889 | 25.56° C | 87% | 1008.7 hPa | 0 mm | - | 159 W/m² | - |
| 1777384587 | 25.56° C | 87% | 1008.7 hPa | 0 mm | - | 115 W/m² | - |
| 1777384286 | 25° C | 88% | 1008.8 hPa | 0 mm | - | 107 W/m² | - |
| 1777383981 | 25° C | 88% | 1008.8 hPa | 0 mm | - | 103 W/m² | - |
| 1777383678 | 25° C | 89% | 1008.7 hPa | 0 mm | - | 92 W/m² | - |
| 1777383375 | 25° C | 89% | 1008.5 hPa | 0 mm | - | 78 W/m² | - |
| 1777383070 | 25° C | 89% | 1008.5 hPa | 0 mm | - | 70 W/m² | - |
| 1777382768 | 25° C | 89% | 1008.4 hPa | 0 mm | - | 72 W/m² | - |
| 1777382463 | 24.44° C | 89% | 1008.3 hPa | 0 mm | - | 65 W/m² | - |
| 1777382159 | 24.44° C | 89% | 1008.5 hPa | 0 mm | - | 53 W/m² | - |
| 1777381856 | 24.44° C | 89% | 1008.4 hPa | 0 mm | - | 59 W/m² | - |
| 1777381555 | 24.44° C | 89% | 1008.3 hPa | 0 mm | - | 56 W/m² | - |
| 1777381250 | 24.44° C | 90% | 1008.3 hPa | 0 mm | - | 44 W/m² | - |
| 1777380949 | 24.44° C | 89% | 1008 hPa | 0 mm | - | 43 W/m² | - |
* Rain latest hour (hover to see other rain measurements)
** Current wind speed in m/s (hover to see current wind gust speed)